This is the latest recevied weather packets stored in our database for station/object KF6FPU-15. If no packets are shown the sender has not sent any weather packets the latest 10 day(s).
| Time | Temp. | Humidity | Pressure | Rain* | Wind** | Luminosity | Snow |
|---|---|---|---|---|---|---|---|
| 1777722709 | 23.89° C | 19% | 1011.3 hPa | - | - | - | - |
| 1777722109 | 23.89° C | 20% | 1011.2 hPa | - | - | - | - |
| 1777721509 | 23.89° C | 20% | 1011.3 hPa | - | - | - | - |
| 1777720909 | 23.89° C | 20% | 1011.4 hPa | - | - | - | - |
| 1777720309 | 23.89° C | 20% | 1011.4 hPa | - | - | - | - |
| 1777719709 | 23.33° C | 20% | 1011.3 hPa | - | - | - | - |
| 1777718509 | 23.33° C | 20% | 1011.3 hPa | - | - | - | - |
| 1777717909 | 23.33° C | 20% | 1011.5 hPa | - | - | - | - |
| 1777717309 | 23.89° C | 20% | 1011.5 hPa | - | - | - | - |
| 1777716709 | 23.33° C | 20% | 1011.6 hPa | - | - | - | - |
| 1777716109 | 23.89° C | 20% | 1011.6 hPa | - | - | - | - |
| 1777715509 | 23.89° C | 20% | 1011.7 hPa | - | - | - | - |
| 1777714909 | 24.44° C | 19% | 1012 hPa | - | - | - | - |
| 1777714309 | 24.44° C | 19% | 1012 hPa | - | - | - | - |
| 1777713709 | 24.44° C | 19% | 1012 hPa | - | - | - | - |
| 1777713109 | 25° C | 19% | 1012 hPa | - | - | - | - |
| 1777711909 | 24.44° C | 20% | 1012.2 hPa | - | - | - | - |
| 1777711309 | 24.44° C | 19% | 1012.2 hPa | - | - | - | - |
| 1777710709 | 24.44° C | 20% | 1012.2 hPa | - | - | - | - |
| 1777710109 | 24.44° C | 20% | 1012.1 hPa | - | - | - | - |
| 1777709509 | 24.44° C | 20% | 1012 hPa | - | - | - | - |
| 1777708909 | 24.44° C | 20% | 1012.1 hPa | - | - | - | - |
| 1777708309 | 24.44° C | 20% | 1012.2 hPa | - | - | - | - |
| 1777707709 | 24.44° C | 20% | 1012.2 hPa | - | - | - | - |
| 1777707109 | 24.44° C | 20% | 1012.2 hPa | - | - | - | - |
* Rain since midnight (hover to see other rain measurements)
** Current wind speed in m/s (hover to see current wind gust speed)